Вернуться в каталог

FENGYUN 1C DEB

АктивенPO
NORAD 30141·DEBRIS·🇨🇳 China

Запущен May 10, 1999 с Taiyuan Satellite Launch Center

Loading…

Ближайшие Пролёты (ближайшие 24 часа)

TLE

СвежийSource: Space-Track

Эпоха: Sep 14, 2026, 19:27 UTC

1 30141U 99025SW  26257.81086498  .00005753  00000-0  13025-2 0  9993
2 30141  99.0181 205.9013 0014829 292.4816  67.4810 14.56513184 22520

Отслеживайте FENGYUN 1C DEB в реальном времени с AllMySat

Download on the App Store